When you browse on this site, cookies collect data to enhance your experience and personalize the content and advertising you see.
Visit our Privacy Policy to learn more. By continuing to use the site, you agree to this use of cookies and data.
  • In Schweiz
  • Länderverzeichnis
  • Für 7 Tage
  • Wassertemperatur
  • Satellitenkarten
  • Wetterkarte
  • Widgets
  • user-avatar
    Anmelden

    Stündliche Wetter Tovstodubove

    Heute, 21 April, Sonntag

    Zeit Temperatur Niederschläge Wind Luftdruck Luftfeuchtigkeit
    00:00 +9°C° 0 mm 1 m/S 749 mmHg 61%
    01:00 +8°C° 0 mm 0 m/S 749 mmHg 63%
    02:00 +7°C° 0 mm 0 m/S 749 mmHg 65%
    03:00 +8°C° 0 mm 1 m/S 749 mmHg 67%
    04:00 +7°C° 0 mm 1 m/S 749 mmHg 69%
    05:00 +7°C° 0 mm 1 m/S 749 mmHg 71%
    06:00 +7°C° 0 mm 2 m/S 749 mmHg 65%
    07:00 +9°C° 0 mm 2 m/S 750 mmHg 60%
    08:00 +12°C° 0 mm 2 m/S 750 mmHg 55%
    09:00 +11°C° 0 mm 3 m/S 750 mmHg 49%
    10:00 +12°C° 0 mm 3 m/S 750 mmHg 44%
    11:00 +13°C° 0 mm 3 m/S 750 mmHg 38%
    12:00 +13°C° 0 mm 3 m/S 750 mmHg 38%
    13:00 +13°C° 0 mm 3 m/S 750 mmHg 37%
    14:00 +14°C° 0 mm 3 m/S 750 mmHg 37%
    15:00 +13°C° 0 mm 3 m/S 750 mmHg 38%
    16:00 +13°C° 0 mm 3 m/S 750 mmHg 40%
    17:00 +13°C° 0 mm 3 m/S 750 mmHg 42%
    18:00 +13°C° 0 mm 2 m/S 750 mmHg 46%
    19:00 +10°C° 0 mm 2 m/S 751 mmHg 50%
    20:00 +9°C° 0 mm 2 m/S 751 mmHg 54%
    21:00 +9°C° 0 mm 2 m/S 751 mmHg 55%
    22:00 +8°C° 0 mm 2 m/S 751 mmHg 55%
    23:00 +8°C° 0 mm 2 m/S 752 mmHg 56%

    Morgen, 22 April, Montag

    Zeit Temperatur Niederschläge Wind Luftdruck Luftfeuchtigkeit
    00:00 +8°C° 0 mm 2 m/S 752 mmHg 57%
    01:00 +7°C° 0 mm 2 m/S 752 mmHg 57%
    02:00 +7°C° 0 mm 2 m/S 752 mmHg 58%
    03:00 +7°C° 0 mm 2 m/S 752 mmHg 59%
    04:00 +6°C° 0 mm 2 m/S 752 mmHg 60%
    05:00 +6°C° 0 mm 2 m/S 752 mmHg 61%
    06:00 +7°C° 0 mm 2 m/S 753 mmHg 57%
    07:00 +9°C° 0 mm 2 m/S 753 mmHg 53%
    08:00 +12°C° 0 mm 2 m/S 753 mmHg 49%
    09:00 +13°C° 0 mm 2 m/S 753 mmHg 44%
    10:00 +13°C° 0 mm 3 m/S 754 mmHg 39%
    11:00 +14°C° 0 mm 3 m/S 754 mmHg 33%
    12:00 +14°C° 0 mm 3 m/S 754 mmHg 34%
    13:00 +15°C° 0 mm 2 m/S 753 mmHg 34%
    14:00 +15°C° 0 mm 2 m/S 753 mmHg 34%
    15:00 +15°C° 0 mm 2 m/S 753 mmHg 37%
    16:00 +15°C° 0 mm 1 m/S 753 mmHg 41%
    17:00 +15°C° 0 mm 1 m/S 753 mmHg 44%
    18:00 +14°C° 0 mm 1 m/S 753 mmHg 45%
    19:00 +12°C° 0 mm 1 m/S 753 mmHg 47%
    20:00 +11°C° 0 mm 1 m/S 753 mmHg 49%
    21:00 +11°C° 0 mm 1 m/S 754 mmHg 50%
    22:00 +11°C° 0 mm 1 m/S 754 mmHg 50%
    23:00 +11°C° 0 mm 1 m/S 754 mmHg 51%

    übermorgen, 23 April, Dienstag

    Zeit Temperatur Niederschläge Wind Luftdruck Luftfeuchtigkeit
    00:00 +10°C° 0 mm 1 m/S 754 mmHg 53%
    01:00 +10°C° 0 mm 1 m/S 754 mmHg 54%
    02:00 +10°C° 0 mm 1 m/S 754 mmHg 56%
    03:00 +9°C° 0 mm 1 m/S 754 mmHg 58%
    04:00 +9°C° 0 mm 1 m/S 754 mmHg 59%
    05:00 +8°C° 0 mm 1 m/S 754 mmHg 61%
    06:00 +10°C° 0 mm 1 m/S 754 mmHg 57%
    07:00 +12°C° 0 mm 2 m/S 755 mmHg 54%
    08:00 +14°C° 0 mm 2 m/S 755 mmHg 50%
    09:00 +14°C° 0 mm 2 m/S 755 mmHg 46%
    10:00 +15°C° 0 mm 2 m/S 755 mmHg 42%
    11:00 +16°C° 0 mm 2 m/S 755 mmHg 38%
    12:00 +16°C° 0 mm 2 m/S 755 mmHg 39%
    13:00 +16°C° 0 mm 1 m/S 755 mmHg 39%
    14:00 +16°C° 0 mm 1 m/S 755 mmHg 39%
    15:00 +16°C° 0 mm 1 m/S 754 mmHg 41%
    16:00 +16°C° 0 mm 1 m/S 754 mmHg 42%
    17:00 +16°C° 0 mm 1 m/S 754 mmHg 44%
    18:00 +14°C° 0 mm 0 m/S 754 mmHg 46%
    19:00 +12°C° 0 mm 0 m/S 754 mmHg 49%
    20:00 +11°C° 0 mm 0 m/S 754 mmHg 52%
    21:00 +11°C° 0 mm 0 m/S 754 mmHg 53%
    22:00 +10°C° 0 mm 0 m/S 754 mmHg 54%
    23:00 +10°C° 0 mm 0 m/S 755 mmHg 55%

    24 April, Mittwoch

    Zeit Temperatur Niederschläge Wind Luftdruck Luftfeuchtigkeit
    00:00 +9°C° 0 mm 0 m/S 755 mmHg 56%
    01:00 +10°C° 0 mm 1 m/S 755 mmHg 58%
    02:00 +9°C° 0 mm 1 m/S 755 mmHg 59%
    03:00 +9°C° 0 mm 1 m/S 755 mmHg 61%
    04:00 +9°C° 0 mm 1 m/S 755 mmHg 62%
    05:00 +8°C° 0 mm 1 m/S 755 mmHg 64%
    06:00 +10°C° 0 mm 1 m/S 755 mmHg 60%
    07:00 +12°C° 0 mm 1 m/S 755 mmHg 56%
    08:00 +14°C° 0 mm 2 m/S 755 mmHg 52%
    09:00 +15°C° 0 mm 1 m/S 755 mmHg 48%
    10:00 +16°C° 0 mm 1 m/S 755 mmHg 44%
    11:00 +19°C° 0 mm 1 m/S 755 mmHg 40%
    12:00 +19°C° 0 mm 1 m/S 755 mmHg 39%
    13:00 +20°C° 0 mm 1 m/S 754 mmHg 38%
    14:00 +19°C° 0 mm 0 m/S 754 mmHg 37%
    15:00 +18°C° 0 mm 0 m/S 754 mmHg 39%
    16:00 +18°C° 0 mm 0 m/S 754 mmHg 41%
    17:00 +18°C° 0 mm 0 m/S 753 mmHg 42%
    18:00 +16°C° 0 mm 0 m/S 753 mmHg 46%
    19:00 +14°C° 0 mm 0 m/S 753 mmHg 50%
    20:00 +13°C° 0 mm 0 m/S 753 mmHg 55%
    21:00 +12°C° 0 mm 0 m/S 754 mmHg 56%
    22:00 +13°C° 0 mm 1 m/S 754 mmHg 57%
    23:00 +12°C° 0 mm 1 m/S 754 mmHg 58%

    25 April, Donnerstag

    Zeit Temperatur Niederschläge Wind Luftdruck Luftfeuchtigkeit
    00:00 +12°C° 0 mm 1 m/S 754 mmHg 59%
    01:00 +12°C° 0 mm 1 m/S 754 mmHg 60%
    02:00 +11°C° 0 mm 1 m/S 754 mmHg 62%
    03:00 +11°C° 0 mm 1 m/S 754 mmHg 63%
    04:00 +11°C° 0 mm 1 m/S 754 mmHg 65%
    05:00 +10°C° 0 mm 1 m/S 754 mmHg 66%
    06:00 +12°C° 0 mm 1 m/S 754 mmHg 62%
    07:00 +14°C° 0 mm 1 m/S 754 mmHg 57%
    08:00 +16°C° 0 mm 1 m/S 754 mmHg 52%
    09:00 +18°C° 0 mm 1 m/S 754 mmHg 49%
    10:00 +20°C° 0 mm 1 m/S 754 mmHg 46%
    11:00 +21°C° 0 mm 1 m/S 754 mmHg 43%
    12:00 +20°C° 0 mm 2 m/S 753 mmHg 42%
    13:00 +20°C° 0 mm 2 m/S 753 mmHg 42%
    14:00 +21°C° 0 mm 2 m/S 753 mmHg 42%
    15:00 +20°C° 0 mm 2 m/S 752 mmHg 45%
    16:00 +20°C° 0 mm 2 m/S 752 mmHg 48%
    17:00 +20°C° 0 mm 2 m/S 751 mmHg 51%
    18:00 +18°C° 0 mm 2 m/S 751 mmHg 55%
    19:00 +16°C° 0 mm 2 m/S 751 mmHg 59%
    20:00 +15°C° 0 mm 2 m/S 751 mmHg 63%
    21:00 +14°C° 0 mm 2 m/S 751 mmHg 65%
    22:00 +13°C° 0 mm 2 m/S 751 mmHg 67%
    23:00 +13°C° 0 mm 2 m/S 750 mmHg 69%

    26 April, Freitag

    Zeit Temperatur Niederschläge Wind Luftdruck Luftfeuchtigkeit
    00:00 +12°C° 0 mm 2 m/S 750 mmHg 69%
    01:00 +12°C° 0 mm 2 m/S 750 mmHg 69%
    02:00 +12°C° 0 mm 2 m/S 750 mmHg 68%
    03:00 +10°C° 0 mm 2 m/S 750 mmHg 70%
    04:00 +10°C° 0 mm 2 m/S 750 mmHg 71%
    05:00 +10°C° 0 mm 2 m/S 749 mmHg 72%
    06:00 +12°C° 0 mm 3 m/S 749 mmHg 69%
    07:00 +13°C° 0 mm 3 m/S 749 mmHg 66%
    08:00 +15°C° 0 mm 4 m/S 749 mmHg 62%
    09:00 +17°C° 0 mm 4 m/S 749 mmHg 58%
    10:00 +17°C° 0 mm 5 m/S 748 mmHg 53%
    11:00 +19°C° 0 mm 6 m/S 748 mmHg 49%
    12:00 +19°C° 0 mm 6 m/S 747 mmHg 49%
    13:00 +20°C° 0 mm 6 m/S 747 mmHg 50%
    14:00 +20°C° 0 mm 6 m/S 746 mmHg 50%
    15:00 +19°C° 0 mm 5 m/S 746 mmHg 53%
    16:00 +19°C° 0 mm 4 m/S 745 mmHg 57%
    17:00 +19°C° 0 mm 4 m/S 745 mmHg 60%
    18:00 +18°C° 0 mm 4 m/S 745 mmHg 63%
    19:00 +15°C° 0 mm 4 m/S 745 mmHg 66%
    20:00 +14°C° 0 mm 4 m/S 744 mmHg 68%
    21:00 +14°C° 0 mm 4 m/S 744 mmHg 70%
    22:00 +13°C° 0 mm 4 m/S 744 mmHg 71%
    23:00 +13°C° 0 mm 4 m/S 744 mmHg 73%
    Mehr zeigen